Time,TemperatureF,DewpointF,PressureIn,WindDirection,WindDirectionDegrees,WindSpeedMPH,WindSpeedGustMPH,Humidity,HourlyPrecipIn,Conditions,Clouds,dailyrainin,SoftwareType,DateUTC
2013-12-17 00:00:00,39.6,31.7,30.07,SSW,196,0.0,0.0,73,0.00,,,0.00,VWS V14.01,2013-12-17 05:00:00,
2013-12-17 00:02:00,39.6,31.7,30.07,SSW,206,0.0,0.0,73,0.00,,,0.00,VWS V14.01,2013-12-17 05:02:00,
2013-12-17 00:07:00,39.6,32.0,30.07,SSW,205,0.0,0.0,74,0.00,,,0.00,VWS V14.01,2013-12-17 05:07:00,
2013-12-17 00:10:00,39.6,32.0,30.07,SW,221,0.0,0.0,74,0.00,,,0.00,VWS V14.01,2013-12-17 05:10:00,
2013-12-17 00:12:00,39.5,31.9,30.07,SW,221,0.0,0.0,74,0.00,,,0.00,VWS V14.01,2013-12-17 05:12:00,
2013-12-17 00:17:00,39.5,31.9,30.07,SSW,203,0.0,0.0,74,0.00,,,0.00,VWS V14.01,2013-12-17 05:17:00,
2013-12-17 00:20:00,39.6,32.0,30.07,SSW,212,0.0,0.0,74,0.00,,,0.00,VWS V14.01,2013-12-17 05:20:00,
2013-12-17 00:22:00,39.5,31.9,30.07,SSW,211,0.0,0.0,74,0.00,,,0.00,VWS V14.01,2013-12-17 05:22:00,
2013-12-17 00:27:00,39.5,31.9,30.07,SSW,213,0.0,0.0,74,0.00,,,0.00,VWS V14.01,2013-12-17 05:27:00,
2013-12-17 00:30:00,39.5,31.9,30.06,SSW,213,0.0,0.0,74,0.00,,,0.00,VWS V14.01,2013-12-17 05:30:00,
2013-12-17 00:32:00,39.5,31.9,30.06,SSW,213,0.0,0.0,74,0.00,,,0.00,VWS V14.01,2013-12-17 05:32:00,
2013-12-17 00:37:00,39.5,31.9,30.06,SW,221,0.0,0.0,74,0.00,,,0.00,VWS V14.01,2013-12-17 05:37:00,
2013-12-17 00:40:00,39.5,31.9,30.06,SSW,211,0.0,0.0,74,0.00,,,0.00,VWS V14.01,2013-12-17 05:40:00,
2013-12-17 00:42:00,39.5,31.9,30.06,SW,221,0.0,0.0,74,0.00,,,0.00,VWS V14.01,2013-12-17 05:42:00,
2013-12-17 00:47:00,39.6,32.0,30.07,SW,226,0.0,0.0,74,0.00,,,0.00,VWS V14.01,2013-12-17 05:47:00,
2013-12-17 00:50:00,39.6,32.0,30.07,SW,221,0.0,0.0,74,0.00,,,0.00,VWS V14.01,2013-12-17 05:50:00,
2013-12-17 00:52:00,39.6,32.0,30.07,SW,220,0.0,0.0,74,0.00,,,0.00,VWS V14.01,2013-12-17 05:52:00,
2013-12-17 00:57:00,39.6,32.0,30.07,SSW,195,0.0,0.0,74,0.00,,,0.00,VWS V14.01,2013-12-17 05:57:00,
2013-12-17 01:00:00,39.8,32.2,30.06,SW,215,0.0,0.0,74,0.00,,,0.00,VWS V14.01,2013-12-17 06:00:00,
2013-12-17 01:02:00,39.8,32.2,30.06,SW,229,0.0,0.0,74,0.00,,,0.00,VWS V14.01,2013-12-17 06:02:00,
2013-12-17 01:07:00,40.1,32.5,30.06,SSW,205,0.0,0.0,74,0.00,,,0.00,VWS V14.01,2013-12-17 06:07:00,
2013-12-17 01:10:00,40.2,32.6,30.06,SW,215,0.0,0.0,74,0.00,,,0.00,VWS V14.01,2013-12-17 06:10:00,
2013-12-17 01:12:00,40.2,32.2,30.06,SSW,199,0.0,0.0,73,0.00,,,0.00,VWS V14.01,2013-12-17 06:12:00,
2013-12-17 01:17:00,40.5,32.5,30.05,SW,225,0.0,0.0,73,0.00,,,0.00,VWS V14.01,2013-12-17 06:17:00,
2013-12-17 01:20:00,40.6,32.6,30.05,SW,223,0.0,0.0,73,0.00,,,0.00,VWS V14.01,2013-12-17 06:20:00,
2013-12-17 01:22:00,40.8,32.5,30.05,SW,217,0.0,0.0,72,0.00,,,0.00,VWS V14.01,2013-12-17 06:22:00,
2013-12-17 01:27:00,41.1,32.8,30.05,SSW,206,0.0,0.0,72,0.00,,,0.00,VWS V14.01,2013-12-17 06:27:00,
2013-12-17 01:30:00,41.2,32.9,30.05,SSW,200,0.0,0.0,72,0.00,,,0.00,VWS V14.01,2013-12-17 06:30:00,
2013-12-17 01:32:00,41.3,32.6,30.05,SW,223,0.0,0.0,71,0.00,,,0.00,VWS V14.01,2013-12-17 06:32:00,
2013-12-17 01:37:00,41.5,32.8,30.05,SSW,212,0.0,0.0,71,0.00,,,0.00,VWS V14.01,2013-12-17 06:37:00,
2013-12-17 01:40:00,41.5,32.8,30.05,SW,222,0.0,0.0,71,0.00,,,0.00,VWS V14.01,2013-12-17 06:40:00,
2013-12-17 01:42:00,41.5,32.8,30.05,SW,217,0.0,0.0,71,0.00,,,0.00,VWS V14.01,2013-12-17 06:42:00,
2013-12-17 01:47:00,41.6,32.9,30.06,SW,229,0.0,0.0,71,0.00,,,0.00,VWS V14.01,2013-12-17 06:47:00,
2013-12-17 01:50:00,41.6,32.9,30.06,SW,232,0.0,0.0,71,0.00,,,0.00,VWS V14.01,2013-12-17 06:50:00,
2013-12-17 01:52:00,41.6,33.3,30.06,SW,218,0.0,0.0,72,0.00,,,0.00,VWS V14.01,2013-12-17 06:52:00,
2013-12-17 01:57:00,41.8,33.1,30.06,SW,230,0.0,0.0,71,0.00,,,0.00,VWS V14.01,2013-12-17 06:57:00,
2013-12-17 02:00:00,41.8,33.1,30.07,SW,236,0.0,0.0,71,0.00,,,0.00,VWS V14.01,2013-12-17 07:00:00,
2013-12-17 02:02:00,41.8,33.1,30.07,SW,231,0.0,0.0,71,0.00,,,0.00,VWS V14.01,2013-12-17 07:02:00,
2013-12-17 02:07:00,42.1,33.4,30.07,SW,220,0.0,0.0,71,0.00,,,0.00,VWS V14.01,2013-12-17 07:07:00,
2013-12-17 02:10:00,42.1,33.4,30.07,SW,222,0.0,0.0,71,0.00,,,0.00,VWS V14.01,2013-12-17 07:10:00,
2013-12-17 02:12:00,42.2,33.5,30.07,WSW,240,0.0,0.0,71,0.00,,,0.00,VWS V14.01,2013-12-17 07:12:00,
2013-12-17 02:17:00,42.2,33.5,30.07,WSW,238,0.0,0.0,71,0.00,,,0.00,VWS V14.01,2013-12-17 07:17:00,
2013-12-17 02:20:00,42.2,33.5,30.07,SSW,212,0.0,0.0,71,0.00,,,0.00,VWS V14.01,2013-12-17 07:20:00,
2013-12-17 02:22:00,42.3,33.6,30.07,SW,233,0.0,0.0,71,0.00,,,0.00,VWS V14.01,2013-12-17 07:22:00,
2013-12-17 02:27:00,42.3,33.6,30.07,SW,215,0.0,0.0,71,0.00,,,0.00,VWS V14.01,2013-12-17 07:27:00,
2013-12-17 02:30:00,42.3,33.6,30.07,WSW,240,0.0,0.0,71,0.00,,,0.00,VWS V14.01,2013-12-17 07:30:00,
2013-12-17 02:32:00,42.3,33.2,30.07,SW,220,0.0,0.0,70,0.00,,,0.00,VWS V14.01,2013-12-17 07:32:00,
2013-12-17 02:40:00,42.5,33.4,30.07,WSW,237,0.0,0.0,70,0.00,,,0.00,VWS V14.01,2013-12-17 07:40:00,
2013-12-17 02:42:00,42.6,33.5,30.07,WSW,238,0.0,0.0,70,0.00,,,0.00,VWS V14.01,2013-12-17 07:42:00,
2013-12-17 02:50:00,42.6,33.5,30.07,SW,231,0.0,0.0,70,0.00,,,0.00,VWS V14.01,2013-12-17 07:50:00,
2013-12-17 02:52:00,42.5,33.4,30.07,SW,232,0.0,0.0,70,0.00,,,0.00,VWS V14.01,2013-12-17 07:52:00,
2013-12-17 02:57:00,42.5,33.4,30.07,SW,234,0.0,0.0,70,0.00,,,0.00,VWS V14.01,2013-12-17 07:57:00,
2013-12-17 03:00:00,42.5,33.4,30.07,SW,233,0.0,0.0,70,0.00,,,0.00,VWS V14.01,2013-12-17 08:00:00,
2013-12-17 03:02:00,42.5,33.4,30.07,West,267,0.0,0.0,70,0.00,,,0.00,VWS V14.01,2013-12-17 08:02:00,
2013-12-17 03:07:00,42.6,33.5,30.07,WSW,248,0.0,0.0,70,0.00,,,0.00,VWS V14.01,2013-12-17 08:07:00,
2013-12-17 03:10:00,42.6,33.5,30.07,WSW,246,0.0,0.0,70,0.00,,,0.00,VWS V14.01,2013-12-17 08:10:00,
2013-12-17 03:17:00,42.6,33.5,30.07,SW,218,0.0,0.0,70,0.00,,,0.00,VWS V14.01,2013-12-17 08:17:00,
2013-12-17 03:20:00,42.6,33.5,30.07,WSW,238,0.0,0.0,70,0.00,,,0.00,VWS V14.01,2013-12-17 08:20:00,
2013-12-17 03:27:00,42.5,33.4,30.07,SW,219,0.0,0.0,70,0.00,,,0.00,VWS V14.01,2013-12-17 08:27:00,
2013-12-17 03:30:00,42.5,33.4,30.06,WSW,240,0.0,0.0,70,0.00,,,0.00,VWS V14.01,2013-12-17 08:30:00,
2013-12-17 03:32:00,42.5,33.4,30.06,SW,219,0.0,0.0,70,0.00,,,0.00,VWS V14.01,2013-12-17 08:32:00,
2013-12-17 03:40:00,42.3,33.6,30.06,SW,215,0.0,0.0,71,0.00,,,0.00,VWS V14.01,2013-12-17 08:40:00,
2013-12-17 03:43:00,42.5,33.4,30.07,SW,218,0.0,0.0,70,0.00,,,0.00,VWS V14.01,2013-12-17 08:43:00,
2013-12-17 03:50:00,42.2,33.5,30.05,SSW,210,0.0,0.0,71,0.00,,,0.00,VWS V14.01,2013-12-17 08:50:00,
2013-12-17 03:53:00,42.6,33.5,30.07,SW,227,0.0,0.0,70,0.00,,,0.00,VWS V14.01,2013-12-17 08:53:00,
2013-12-17 03:57:00,42.1,33.7,30.05,SW,225,0.0,0.0,72,0.00,,,0.00,VWS V14.01,2013-12-17 08:57:00,
2013-12-17 04:02:00,42.1,33.7,30.05,SW,235,0.0,0.0,72,0.00,,,0.00,VWS V14.01,2013-12-17 09:02:00,
2013-12-17 04:07:00,42.1,33.7,30.05,SW,230,0.0,0.0,72,0.00,,,0.00,VWS V14.01,2013-12-17 09:07:00,
2013-12-17 04:10:00,41.9,33.5,30.05,SW,217,0.0,0.0,72,0.00,,,0.00,VWS V14.01,2013-12-17 09:10:00,
2013-12-17 04:12:00,41.9,33.5,30.05,WSW,253,0.0,0.0,72,0.00,,,0.00,VWS V14.01,2013-12-17 09:12:00,
2013-12-17 04:17:00,41.9,33.5,30.06,SW,228,0.0,0.0,72,0.00,,,0.00,VWS V14.01,2013-12-17 09:17:00,
2013-12-17 04:18:00,42.6,33.5,30.07,SW,215,0.0,0.0,70,0.00,,,0.00,VWS V14.01,2013-12-17 09:18:00,
2013-12-17 04:20:00,41.9,33.5,30.06,WSW,241,0.0,0.0,72,0.00,,,0.00,VWS V14.01,2013-12-17 09:20:00,
2013-12-17 04:22:00,41.8,33.8,30.06,SW,215,0.0,0.0,73,0.00,,,0.00,VWS V14.01,2013-12-17 09:22:00,
2013-12-17 04:27:00,41.8,33.8,30.06,SW,232,0.0,0.0,73,0.00,,,0.00,VWS V14.01,2013-12-17 09:27:00,
2013-12-17 04:28:00,42.5,33.4,30.07,SW,219,0.0,0.0,70,0.00,,,0.00,VWS V14.01,2013-12-17 09:28:00,
2013-12-17 04:30:00,41.8,33.8,30.06,SW,227,0.0,0.0,73,0.00,,,0.00,VWS V14.01,2013-12-17 09:30:00,
2013-12-17 04:32:00,41.6,33.6,30.06,SW,216,0.0,0.0,73,0.00,,,0.00,VWS V14.01,2013-12-17 09:32:00,
2013-12-17 04:37:00,41.6,33.6,30.06,SW,232,0.0,0.0,73,0.00,,,0.00,VWS V14.01,2013-12-17 09:37:00,
2013-12-17 04:40:00,41.6,33.6,30.06,WSW,253,0.0,0.0,73,0.00,,,0.00,VWS V14.01,2013-12-17 09:40:00,
2013-12-17 04:43:00,42.3,33.6,30.06,SW,234,0.0,0.0,71,0.00,,,0.00,VWS V14.01,2013-12-17 09:43:00,
2013-12-17 04:48:00,42.3,33.6,30.06,SW,223,0.0,0.0,71,0.00,,,0.00,VWS V14.01,2013-12-17 09:48:00,
2013-12-17 04:50:00,41.5,33.8,30.06,SW,217,0.0,0.0,74,0.00,,,0.00,VWS V14.01,2013-12-17 09:50:00,
2013-12-17 04:53:00,42.2,33.5,30.05,SW,228,0.0,0.0,71,0.00,,,0.00,VWS V14.01,2013-12-17 09:53:00,
2013-12-17 04:58:00,42.2,33.5,30.05,SW,232,0.0,0.0,71,0.00,,,0.00,VWS V14.01,2013-12-17 09:58:00,
2013-12-17 05:00:00,41.2,33.5,30.06,SW,232,0.0,0.0,74,0.00,,,0.00,VWS V14.01,2013-12-17 10:00:00,
2013-12-17 05:03:00,41.2,33.5,30.06,WSW,250,0.0,0.0,74,0.00,,,0.00,VWS V14.01,2013-12-17 10:03:00,
2013-12-17 05:08:00,41.2,33.9,30.06,SW,222,0.0,0.0,75,0.00,,,0.00,VWS V14.01,2013-12-17 10:08:00,
2013-12-17 05:10:00,41.2,33.9,30.06,SW,234,0.0,0.0,75,0.00,,,0.00,VWS V14.01,2013-12-17 10:10:00,
2013-12-17 05:13:00,41.2,33.9,30.06,WSW,242,0.0,0.0,75,0.00,,,0.00,VWS V14.01,2013-12-17 10:13:00,
2013-12-17 05:18:00,41.2,33.9,30.08,SW,232,0.0,0.0,75,0.00,,,0.00,VWS V14.01,2013-12-17 10:18:00,
2013-12-17 05:20:00,41.2,33.9,30.08,WSW,243,0.0,0.0,75,0.00,,,0.00,VWS V14.01,2013-12-17 10:20:00,
2013-12-17 05:23:00,41.2,33.9,30.08,WSW,254,0.0,0.0,75,0.00,,,0.00,VWS V14.01,2013-12-17 10:23:00,
2013-12-17 05:28:00,41.1,33.8,30.08,West,273,0.0,0.0,75,0.00,,,0.00,VWS V14.01,2013-12-17 10:28:00,
2013-12-17 05:30:00,41.1,33.8,30.09,WSW,254,0.0,0.0,75,0.00,,,0.00,VWS V14.01,2013-12-17 10:30:00,
2013-12-17 05:33:00,41.1,33.8,30.09,WSW,246,0.0,0.0,75,0.00,,,0.00,VWS V14.01,2013-12-17 10:33:00,
2013-12-17 05:38:00,41.1,33.8,30.09,WSW,238,0.0,0.0,75,0.00,,,0.00,VWS V14.01,2013-12-17 10:38:00,
2013-12-17 05:40:00,41.1,33.8,30.09,West,264,0.0,0.0,75,0.00,,,0.00,VWS V14.01,2013-12-17 10:40:00,
2013-12-17 05:43:00,41.1,34.1,30.09,SW,232,0.0,0.0,76,0.00,,,0.00,VWS V14.01,2013-12-17 10:43:00,
2013-12-17 05:48:00,40.9,33.9,30.09,West,259,0.0,0.0,76,0.00,,,0.00,VWS V14.01,2013-12-17 10:48:00,
2013-12-17 05:50:00,40.9,33.9,30.09,WSW,246,0.0,0.0,76,0.00,,,0.00,VWS V14.01,2013-12-17 10:50:00,
2013-12-17 05:53:00,40.9,33.9,30.09,West,268,0.0,0.0,76,0.00,,,0.00,VWS V14.01,2013-12-17 10:53:00,
2013-12-17 05:58:00,40.9,33.9,30.09,WSW,254,0.0,0.0,76,0.00,,,0.00,VWS V14.01,2013-12-17 10:58:00,
2013-12-17 06:03:00,40.9,34.3,30.11,WSW,254,0.0,0.0,77,0.00,,,0.00,VWS V14.01,2013-12-17 11:03:00,
2013-12-17 06:08:00,40.9,34.3,30.11,West,264,0.0,0.0,77,0.00,,,0.00,VWS V14.01,2013-12-17 11:08:00,
2013-12-17 06:10:00,40.8,34.2,30.11,West,261,0.0,0.0,77,0.00,,,0.00,VWS V14.01,2013-12-17 11:10:00,
2013-12-17 06:13:00,40.8,34.2,30.11,West,264,0.0,0.0,77,0.00,,,0.00,VWS V14.01,2013-12-17 11:13:00,
2013-12-17 06:18:00,40.8,34.2,30.12,West,267,0.0,0.0,77,0.00,,,0.00,VWS V14.01,2013-12-17 11:18:00,
2013-12-17 06:20:00,40.8,34.2,30.12,WSW,255,0.0,0.0,77,0.00,,,0.00,VWS V14.01,2013-12-17 11:20:00,
2013-12-17 06:23:00,40.8,34.2,30.12,WSW,257,0.0,0.0,77,0.00,,,0.00,VWS V14.01,2013-12-17 11:23:00,
2013-12-17 06:28:00,40.6,34.3,30.12,West,265,0.0,0.0,78,0.00,,,0.00,VWS V14.01,2013-12-17 11:28:00,
2013-12-17 06:30:00,40.6,34.3,30.11,WSW,255,0.0,0.0,78,0.00,,,0.00,VWS V14.01,2013-12-17 11:30:00,
2013-12-17 06:33:00,40.5,34.2,30.11,West,278,0.0,0.0,78,0.00,,,0.00,VWS V14.01,2013-12-17 11:33:00,
2013-12-17 06:38:00,40.3,34.0,30.11,WNW,286,0.0,0.0,78,0.00,,,0.00,VWS V14.01,2013-12-17 11:38:00,
2013-12-17 06:40:00,40.2,34.2,30.11,WSW,246,0.0,0.0,79,0.00,,,0.00,VWS V14.01,2013-12-17 11:40:00,
2013-12-17 06:43:00,40.1,34.1,30.11,WSW,258,0.0,0.0,79,0.00,,,0.00,VWS V14.01,2013-12-17 11:43:00,
2013-12-17 06:48:00,39.9,33.9,30.11,WSW,252,0.0,0.0,79,0.00,,,0.00,VWS V14.01,2013-12-17 11:48:00,
2013-12-17 06:50:00,39.8,34.1,30.11,WSW,242,0.0,0.0,80,0.00,,,0.00,VWS V14.01,2013-12-17 11:50:00,
2013-12-17 06:53:00,39.6,34.0,30.11,West,261,0.0,0.0,80,0.00,,,0.00,VWS V14.01,2013-12-17 11:53:00,
2013-12-17 06:58:00,39.5,33.8,30.11,West,279,0.0,0.0,80,0.00,,,0.00,VWS V14.01,2013-12-17 11:58:00,
2013-12-17 07:00:00,39.5,33.8,30.11,WSW,252,0.0,0.0,80,0.00,,,0.00,VWS V14.01,2013-12-17 12:00:00,
2013-12-17 07:03:00,39.3,33.7,30.11,West,261,0.0,0.0,80,0.00,,,0.00,VWS V14.01,2013-12-17 12:03:00,
2013-12-17 07:10:00,39.2,33.6,30.11,West,264,0.0,0.0,80,0.00,,,0.00,VWS V14.01,2013-12-17 12:10:00,
2013-12-17 07:13:00,39.1,33.8,30.11,West,270,0.0,0.0,81,0.00,,,0.00,VWS V14.01,2013-12-17 12:13:00,
2013-12-17 07:18:00,39.1,33.8,30.11,West,260,0.0,0.0,81,0.00,,,0.00,VWS V14.01,2013-12-17 12:18:00,
2013-12-17 07:20:00,38.9,33.6,30.11,West,275,0.0,0.0,81,0.00,,,0.00,VWS V14.01,2013-12-17 12:20:00,
2013-12-17 07:23:00,38.9,33.6,30.11,West,267,0.0,0.0,81,0.00,,,0.00,VWS V14.01,2013-12-17 12:23:00,
2013-12-17 07:28:00,38.8,33.8,30.11,WNW,292,0.0,0.0,82,0.00,,,0.00,VWS V14.01,2013-12-17 12:28:00,
2013-12-17 07:30:00,38.8,33.8,30.11,WNW,292,0.0,0.0,82,0.00,,,0.00,VWS V14.01,2013-12-17 12:30:00,
2013-12-17 07:33:00,38.6,33.6,30.11,WNW,287,0.0,0.0,82,0.00,,,0.00,VWS V14.01,2013-12-17 12:33:00,
2013-12-17 07:38:00,38.3,33.6,30.11,WNW,301,0.0,0.0,83,0.01,,,0.01,VWS V14.01,2013-12-17 12:38:00,
2013-12-17 07:40:00,38.2,33.5,30.11,WNW,295,0.0,0.0,83,0.01,,,0.01,VWS V14.01,2013-12-17 12:40:00,
2013-12-17 07:43:00,38.0,33.3,30.11,West,267,0.0,0.0,83,0.01,,,0.01,VWS V14.01,2013-12-17 12:43:00,
2013-12-17 07:48:00,37.9,33.5,30.12,WNW,283,0.0,0.0,84,0.01,,,0.01,VWS V14.01,2013-12-17 12:48:00,
2013-12-17 07:50:00,37.8,33.7,30.12,WNW,283,0.0,0.0,85,0.01,,,0.01,VWS V14.01,2013-12-17 12:50:00,
2013-12-17 07:53:00,37.8,33.7,30.12,WNW,296,0.0,0.0,85,0.01,,,0.01,VWS V14.01,2013-12-17 12:53:00,
2013-12-17 07:58:00,37.6,33.5,30.12,West,265,0.0,0.0,85,0.01,,,0.01,VWS V14.01,2013-12-17 12:58:00,
2013-12-17 08:03:00,37.5,33.4,30.12,WNW,284,0.0,0.0,85,0.01,,,0.01,VWS V14.01,2013-12-17 13:03:00,
2013-12-17 08:08:00,37.5,33.7,30.12,WNW,283,0.0,0.0,86,0.01,,,0.01,VWS V14.01,2013-12-17 13:08:00,
2013-12-17 08:10:00,37.5,33.7,30.12,WNW,283,0.0,0.0,86,0.01,,,0.01,VWS V14.01,2013-12-17 13:10:00,
2013-12-17 08:13:00,37.5,33.7,30.12,WNW,283,0.0,0.0,86,0.01,,,0.01,VWS V14.01,2013-12-17 13:13:00,
2013-12-17 08:18:00,37.5,33.7,30.11,WNW,283,0.0,0.0,86,0.01,,,0.01,VWS V14.01,2013-12-17 13:18:00,
2013-12-17 08:20:00,37.5,33.7,30.11,WNW,283,0.0,0.0,86,0.01,,,0.01,VWS V14.01,2013-12-17 13:20:00,
2013-12-17 08:23:00,37.5,33.7,30.11,WNW,283,0.0,0.0,86,0.01,,,0.01,VWS V14.01,2013-12-17 13:23:00,
2013-12-17 08:28:00,37.6,34.1,30.11,West,279,0.0,0.0,87,0.01,,,0.01,VWS V14.01,2013-12-17 13:28:00,
2013-12-17 08:30:00,37.6,34.1,30.12,West,279,0.0,0.0,87,0.01,,,0.01,VWS V14.01,2013-12-17 13:30:00,
2013-12-17 08:33:00,37.6,34.1,30.12,West,275,0.0,0.0,87,0.01,,,0.01,VWS V14.01,2013-12-17 13:33:00,
2013-12-17 08:38:00,37.6,34.1,30.12,WNW,288,0.0,0.0,87,0.01,,,0.01,VWS V14.01,2013-12-17 13:38:00,
2013-12-17 08:40:00,37.8,34.3,30.12,WSW,247,0.0,0.0,87,0.01,,,0.01,VWS V14.01,2013-12-17 13:40:00,
2013-12-17 08:43:00,37.8,34.0,30.12,WSW,248,0.0,0.0,86,0.00,,,0.01,VWS V14.01,2013-12-17 13:43:00,
2013-12-17 08:48:00,37.8,34.0,30.12,WSW,248,0.0,0.0,86,0.00,,,0.01,VWS V14.01,2013-12-17 13:48:00,
2013-12-17 08:50:00,37.8,34.0,30.12,WSW,248,0.0,0.0,86,0.00,,,0.01,VWS V14.01,2013-12-17 13:50:00,
2013-12-17 08:54:00,37.9,34.1,30.12,WSW,248,0.0,0.0,86,0.00,,,0.01,VWS V14.01,2013-12-17 13:54:00,
2013-12-17 08:59:00,38.0,34.2,30.12,WNW,299,0.0,0.0,86,0.00,,,0.01,VWS V14.01,2013-12-17 13:59:00,
2013-12-17 09:04:00,38.0,34.2,30.12,WNW,292,0.0,0.0,86,0.00,,,0.01,VWS V14.01,2013-12-17 14:04:00,
2013-12-17 09:09:00,37.9,33.8,30.12,WNW,290,0.0,0.0,85,0.00,,,0.01,VWS V14.01,2013-12-17 14:09:00,
2013-12-17 09:10:00,37.9,33.8,30.12,WNW,283,0.0,0.0,85,0.00,,,0.01,VWS V14.01,2013-12-17 14:10:00,
2013-12-17 09:14:00,37.8,33.7,30.13,West,279,0.0,0.0,85,0.00,,,0.01,VWS V14.01,2013-12-17 14:14:00,
2013-12-17 09:19:00,37.6,33.5,30.13,WNW,289,0.0,0.0,85,0.00,,,0.01,VWS V14.01,2013-12-17 14:19:00,
2013-12-17 09:20:00,37.6,33.5,30.13,WNW,285,0.0,0.0,85,0.00,,,0.01,VWS V14.01,2013-12-17 14:20:00,
2013-12-17 09:24:00,37.3,32.9,30.13,WNW,287,0.0,0.0,84,0.00,,,0.01,VWS V14.01,2013-12-17 14:24:00,
2013-12-17 09:29:00,37.0,32.6,30.13,NW,304,0.0,0.0,84,0.00,,,0.01,VWS V14.01,2013-12-17 14:29:00,
2013-12-17 09:30:00,36.9,32.8,30.13,WNW,296,0.0,0.0,85,0.00,,,0.01,VWS V14.01,2013-12-17 14:30:00,
2013-12-17 09:34:00,36.9,32.8,30.13,West,272,0.0,0.0,85,0.00,,,0.01,VWS V14.01,2013-12-17 14:34:00,
2013-12-17 09:39:00,36.9,32.8,30.13,West,279,0.0,0.0,85,0.00,,,0.01,VWS V14.01,2013-12-17 14:39:00,
2013-12-17 09:40:00,36.9,32.8,30.13,WNW,285,0.0,0.0,85,0.00,,,0.01,VWS V14.01,2013-12-17 14:40:00,
2013-12-17 09:44:00,36.9,32.8,30.12,NW,314,0.0,0.0,85,0.00,,,0.01,VWS V14.01,2013-12-17 14:44:00,
2013-12-17 09:49:00,36.9,32.8,30.12,WNW,284,0.0,0.0,85,0.00,,,0.01,VWS V14.01,2013-12-17 14:49:00,
2013-12-17 09:50:00,36.9,32.8,30.12,West,275,0.0,0.0,85,0.00,,,0.01,VWS V14.01,2013-12-17 14:50:00,
2013-12-17 09:54:00,36.8,32.7,30.12,West,281,0.0,0.0,85,0.00,,,0.01,VWS V14.01,2013-12-17 14:54:00,
2013-12-17 09:59:00,37.0,32.9,30.12,WNW,283,0.0,0.0,85,0.00,,,0.01,VWS V14.01,2013-12-17 14:59:00,
2013-12-17 10:04:00,37.2,33.1,30.12,West,269,0.0,0.0,85,0.00,,,0.01,VWS V14.01,2013-12-17 15:04:00,
2013-12-17 10:09:00,37.2,32.8,30.12,West,267,0.0,0.0,84,0.00,,,0.01,VWS V14.01,2013-12-17 15:09:00,
2013-12-17 10:10:00,37.0,32.6,30.12,West,267,0.0,0.0,84,0.00,,,0.01,VWS V14.01,2013-12-17 15:10:00,
2013-12-17 10:14:00,37.0,32.3,30.11,West,259,0.0,0.0,83,0.00,,,0.01,VWS V14.01,2013-12-17 15:14:00,
2013-12-17 10:19:00,37.2,32.8,30.11,West,269,0.0,0.0,84,0.00,,,0.01,VWS V14.01,2013-12-17 15:19:00,
2013-12-17 10:20:00,37.2,32.8,30.11,WSW,248,0.0,0.0,84,0.00,,,0.01,VWS V14.01,2013-12-17 15:20:00,
2013-12-17 10:24:00,37.0,32.3,30.11,West,266,0.0,0.0,83,0.00,,,0.01,VWS V14.01,2013-12-17 15:24:00,
2013-12-17 10:29:00,37.0,32.3,30.11,SSW,211,0.0,0.0,83,0.00,,,0.01,VWS V14.01,2013-12-17 15:29:00,
2013-12-17 10:30:00,37.0,32.3,30.11,WSW,251,0.0,0.0,83,0.00,,,0.01,VWS V14.01,2013-12-17 15:30:00,
2013-12-17 10:34:00,37.2,32.5,30.11,West,276,0.0,0.0,83,0.00,,,0.01,VWS V14.01,2013-12-17 15:34:00,
2013-12-17 10:39:00,37.2,32.5,30.11,West,259,0.0,0.0,83,0.00,,,0.01,VWS V14.01,2013-12-17 15:39:00,
2013-12-17 10:40:00,37.2,32.5,30.11,West,259,0.0,0.0,83,0.00,,,0.01,VWS V14.01,2013-12-17 15:40:00,
2013-12-17 10:44:00,37.2,32.5,30.09,WSW,249,0.0,0.0,83,0.00,,,0.01,VWS V14.01,2013-12-17 15:44:00,
2013-12-17 10:49:00,37.3,32.6,30.09,West,277,0.0,0.0,83,0.00,,,0.01,VWS V14.01,2013-12-17 15:49:00,
2013-12-17 10:50:00,37.3,32.6,30.09,West,277,0.0,0.0,83,0.00,,,0.01,VWS V14.01,2013-12-17 15:50:00,
2013-12-17 10:54:00,37.2,32.5,30.09,WNW,302,0.0,0.0,83,0.00,,,0.01,VWS V14.01,2013-12-17 15:54:00,
2013-12-17 10:59:00,37.2,32.5,30.08,West,281,0.0,0.0,83,0.00,,,0.01,VWS V14.01,2013-12-17 15:59:00,
2013-12-17 11:04:00,37.2,32.5,30.08,West,264,0.0,0.0,83,0.00,,,0.01,VWS V14.01,2013-12-17 16:04:00,
2013-12-17 11:09:00,37.2,32.5,30.08,West,271,0.0,0.0,83,0.00,,,0.01,VWS V14.01,2013-12-17 16:09:00,
2013-12-17 11:10:00,37.2,32.5,30.08,West,279,0.0,0.0,83,0.00,,,0.01,VWS V14.01,2013-12-17 16:10:00,
2013-12-17 11:14:00,37.2,32.5,30.07,WSW,253,0.0,0.0,83,0.00,,,0.01,VWS V14.01,2013-12-17 16:14:00,
2013-12-17 11:19:00,37.2,32.5,30.07,West,264,0.0,0.0,83,0.00,,,0.01,VWS V14.01,2013-12-17 16:19:00,
2013-12-17 11:20:00,37.2,32.5,30.07,West,264,0.0,0.0,83,0.00,,,0.01,VWS V14.01,2013-12-17 16:20:00,
2013-12-17 11:24:00,37.2,32.5,30.07,WNW,289,0.0,0.0,83,0.00,,,0.01,VWS V14.01,2013-12-17 16:24:00,
2013-12-17 11:29:00,37.2,32.5,30.07,WSW,252,0.0,0.0,83,0.00,,,0.01,VWS V14.01,2013-12-17 16:29:00,
2013-12-17 11:30:00,37.2,32.5,30.07,WSW,252,0.0,0.0,83,0.00,,,0.01,VWS V14.01,2013-12-17 16:30:00,
2013-12-17 11:34:00,37.3,32.9,30.07,West,266,0.0,0.0,84,0.00,,,0.01,VWS V14.01,2013-12-17 16:34:00,
2013-12-17 11:39:00,37.5,32.8,30.07,West,274,0.0,0.0,83,0.00,,,0.01,VWS V14.01,2013-12-17 16:39:00,
2013-12-17 11:40:00,37.5,32.8,30.07,West,267,0.0,0.0,83,0.00,,,0.01,VWS V14.01,2013-12-17 16:40:00,
2013-12-17 11:44:00,37.6,32.9,30.06,SW,231,0.0,0.0,83,0.00,,,0.01,VWS V14.01,2013-12-17 16:44:00,
2013-12-17 11:49:00,37.6,32.9,30.06,West,259,0.0,0.0,83,0.00,,,0.01,VWS V14.01,2013-12-17 16:49:00,
2013-12-17 11:50:00,37.6,32.9,30.06,West,275,0.0,0.0,83,0.00,,,0.01,VWS V14.01,2013-12-17 16:50:00,
2013-12-17 11:54:00,37.8,33.1,30.06,West,269,0.0,0.0,83,0.00,,,0.01,VWS V14.01,2013-12-17 16:54:00,
2013-12-17 11:59:00,37.8,33.1,30.05,WSW,257,0.0,0.0,83,0.00,,,0.01,VWS V14.01,2013-12-17 16:59:00,
2013-12-17 12:00:00,37.8,33.1,30.05,West,265,0.0,0.0,83,0.00,,,0.01,VWS V14.01,2013-12-17 17:00:00,
2013-12-17 12:04:00,37.9,32.9,30.05,WSW,254,0.0,0.0,82,0.00,,,0.01,VWS V14.01,2013-12-17 17:04:00,
2013-12-17 12:09:00,37.9,32.9,30.05,West,278,0.0,0.0,82,0.00,,,0.01,VWS V14.01,2013-12-17 17:09:00,
2013-12-17 12:10:00,37.9,32.9,30.05,West,275,0.0,0.0,82,0.00,,,0.01,VWS V14.01,2013-12-17 17:10:00,
2013-12-17 12:14:00,37.9,32.9,30.06,West,276,0.0,0.0,82,0.00,,,0.01,VWS V14.01,2013-12-17 17:14:00,
2013-12-17 12:19:00,38.0,32.7,30.06,WSW,242,0.0,0.0,81,0.00,,,0.01,VWS V14.01,2013-12-17 17:19:00,
2013-12-17 12:20:00,38.0,32.7,30.06,West,280,0.0,0.0,81,0.00,,,0.01,VWS V14.01,2013-12-17 17:20:00,
2013-12-17 12:24:00,37.9,32.6,30.06,WSW,257,0.0,0.0,81,0.00,,,0.01,VWS V14.01,2013-12-17 17:24:00,
2013-12-17 12:29:00,38.0,32.7,30.06,WSW,244,0.0,0.0,81,0.00,,,0.01,VWS V14.01,2013-12-17 17:29:00,
2013-12-17 12:30:00,38.0,32.7,30.06,SW,234,0.0,0.0,81,0.00,,,0.01,VWS V14.01,2013-12-17 17:30:00,
2013-12-17 12:34:00,38.0,32.7,30.06,West,281,0.0,0.0,81,0.00,,,0.01,VWS V14.01,2013-12-17 17:34:00,
2013-12-17 12:39:00,37.9,32.3,30.06,West,264,0.0,0.0,80,0.00,,,0.01,VWS V14.01,2013-12-17 17:39:00,
2013-12-17 12:40:00,37.9,32.3,30.06,West,262,0.0,0.0,80,0.00,,,0.01,VWS V14.01,2013-12-17 17:40:00,
2013-12-17 12:45:00,37.8,32.2,30.05,West,263,0.0,0.0,80,0.00,,,0.01,VWS V14.01,2013-12-17 17:45:00,
2013-12-17 12:50:00,37.5,32.2,30.05,West,261,0.0,0.0,81,0.00,,,0.01,VWS V14.01,2013-12-17 17:50:00,
2013-12-17 12:55:00,37.3,32.0,30.05,WNW,293,0.0,0.0,81,0.00,,,0.01,VWS V14.01,2013-12-17 17:55:00,
2013-12-17 13:00:00,37.2,31.9,30.05,West,280,0.0,0.0,81,0.00,,,0.01,VWS V14.01,2013-12-17 18:00:00,
2013-12-17 13:05:00,37.2,31.9,30.05,WSW,238,0.0,0.0,81,0.00,,,0.01,VWS V14.01,2013-12-17 18:05:00,
2013-12-17 13:10:00,37.0,31.7,30.05,West,277,0.0,0.0,81,0.00,,,0.01,VWS V14.01,2013-12-17 18:10:00,
2013-12-17 13:15:00,36.9,31.6,30.06,WNW,282,0.0,0.0,81,0.00,,,0.01,VWS V14.01,2013-12-17 18:15:00,
2013-12-17 13:20:00,36.9,31.6,30.06,West,277,0.0,0.0,81,0.00,,,0.01,VWS V14.01,2013-12-17 18:20:00,
2013-12-17 13:25:00,36.9,31.6,30.06,West,273,0.0,0.0,81,0.00,,,0.01,VWS V14.01,2013-12-17 18:25:00,
2013-12-17 13:30:00,36.9,31.6,30.06,West,267,0.0,0.0,81,0.00,,,0.01,VWS V14.01,2013-12-17 18:30:00,
2013-12-17 13:35:00,36.8,31.5,30.06,West,281,0.0,0.0,81,0.00,,,0.01,VWS V14.01,2013-12-17 18:35:00,
2013-12-17 13:40:00,36.8,31.5,30.06,West,277,0.0,0.0,81,0.00,,,0.01,VWS V14.01,2013-12-17 18:40:00,
2013-12-17 13:45:00,36.8,31.5,30.06,West,269,0.0,0.0,81,0.00,,,0.01,VWS V14.01,2013-12-17 18:45:00,
2013-12-17 13:50:00,36.8,31.2,30.06,West,272,0.0,0.0,80,0.00,,,0.01,VWS V14.01,2013-12-17 18:50:00,
2013-12-17 13:55:00,36.9,31.3,30.06,WNW,283,0.0,0.0,80,0.00,,,0.01,VWS V14.01,2013-12-17 18:55:00,
2013-12-17 14:00:00,36.9,31.3,30.07,West,267,0.0,0.0,80,0.00,,,0.01,VWS V14.01,2013-12-17 19:00:00,
2013-12-17 14:05:00,36.9,31.3,30.07,WSW,249,0.0,0.0,80,0.00,,,0.01,VWS V14.01,2013-12-17 19:05:00,
2013-12-17 14:10:00,36.9,31.3,30.07,WNW,293,0.0,0.0,80,0.00,,,0.01,VWS V14.01,2013-12-17 19:10:00,
2013-12-17 14:15:00,36.9,31.0,30.07,WSW,253,0.0,0.0,79,0.00,,,0.01,VWS V14.01,2013-12-17 19:15:00,
2013-12-17 14:20:00,37.0,31.1,30.07,West,260,0.0,0.0,79,0.00,,,0.01,VWS V14.01,2013-12-17 19:20:00,
2013-12-17 14:25:00,36.9,30.7,30.07,WSW,258,0.0,0.0,78,0.00,,,0.01,VWS V14.01,2013-12-17 19:25:00,
2013-12-17 14:30:00,36.8,30.3,30.08,West,279,0.0,0.0,77,0.00,,,0.01,VWS V14.01,2013-12-17 19:30:00,
2013-12-17 14:35:00,36.6,30.4,30.08,West,263,0.0,0.0,78,0.00,,,0.01,VWS V14.01,2013-12-17 19:35:00,
2013-12-17 14:40:00,36.6,30.4,30.08,West,267,0.0,0.0,78,0.00,,,0.01,VWS V14.01,2013-12-17 19:40:00,
2013-12-17 14:45:00,36.3,29.8,30.09,West,276,0.0,0.0,77,0.00,,,0.01,VWS V14.01,2013-12-17 19:45:00,
2013-12-17 14:50:00,36.2,29.7,30.09,West,279,0.0,0.0,77,0.00,,,0.01,VWS V14.01,2013-12-17 19:50:00,
2013-12-17 14:55:00,36.0,29.5,30.09,West,273,0.0,0.0,77,0.00,,,0.01,VWS V14.01,2013-12-17 19:55:00,
2013-12-17 15:00:00,36.0,29.2,30.10,West,271,0.0,0.0,76,0.00,,,0.01,VWS V14.01,2013-12-17 20:00:00,
2013-12-17 15:05:00,36.2,29.0,30.10,West,279,0.0,0.0,75,0.00,,,0.01,VWS V14.01,2013-12-17 20:05:00,
2013-12-17 15:10:00,36.3,28.5,30.10,West,259,0.0,0.0,73,0.00,,,0.01,VWS V14.01,2013-12-17 20:10:00,
2013-12-17 15:15:00,35.6,26.8,30.11,WSW,258,0.0,0.0,70,0.00,,,0.01,VWS V14.01,2013-12-17 20:15:00,
2013-12-17 15:20:00,35.3,25.8,30.11,SW,232,0.0,0.0,68,0.00,,,0.01,VWS V14.01,2013-12-17 20:20:00,
2013-12-17 15:21:00,35.3,26.2,30.11,WSW,249,0.0,0.0,69,0.00,,,0.01,VWS V14.01,2013-12-17 20:21:00,
2013-12-17 15:26:00,35.5,26.4,30.11,West,261,0.0,0.0,69,0.00,,,0.01,VWS V14.01,2013-12-17 20:26:00,
2013-12-17 15:30:00,35.5,26.0,30.12,WSW,240,0.0,0.0,68,0.00,,,0.01,VWS V14.01,2013-12-17 20:30:00,
2013-12-17 15:31:00,35.5,26.4,30.12,WNW,300,0.0,0.0,69,0.00,,,0.01,VWS V14.01,2013-12-17 20:31:00,
2013-12-17 15:36:00,35.0,25.9,30.12,West,277,0.0,0.0,69,0.00,,,0.01,VWS V14.01,2013-12-17 20:36:00,
2013-12-17 15:40:00,34.9,25.8,30.12,West,266,0.0,0.0,69,0.00,,,0.01,VWS V14.01,2013-12-17 20:40:00,
2013-12-17 15:41:00,34.7,25.6,30.12,West,267,0.0,0.0,69,0.00,,,0.01,VWS V14.01,2013-12-17 20:41:00,
2013-12-17 15:46:00,34.6,26.2,30.13,WSW,254,0.0,0.0,71,0.00,,,0.01,VWS V14.01,2013-12-17 20:46:00,
2013-12-17 15:50:00,34.3,25.9,30.13,WNW,282,0.0,0.0,71,0.00,,,0.01,VWS V14.01,2013-12-17 20:50:00,
2013-12-17 15:51:00,34.3,25.9,30.13,WSW,252,0.0,0.0,71,0.00,,,0.01,VWS V14.01,2013-12-17 20:51:00,
2013-12-17 15:56:00,34.1,26.0,30.13,WSW,237,0.0,0.0,72,0.00,,,0.01,VWS V14.01,2013-12-17 20:56:00,
2013-12-17 16:00:00,34.0,25.9,30.14,West,277,0.0,0.0,72,0.00,,,0.01,VWS V14.01,2013-12-17 21:00:00,
2013-12-17 16:01:00,34.0,26.3,30.14,WSW,258,0.0,0.0,73,0.00,,,0.01,VWS V14.01,2013-12-17 21:01:00,
2013-12-17 16:06:00,33.7,26.0,30.14,WSW,257,0.0,0.0,73,0.00,,,0.01,VWS V14.01,2013-12-17 21:06:00,
2013-12-17 16:10:00,33.7,26.0,30.14,WSW,254,0.0,0.0,73,0.00,,,0.01,VWS V14.01,2013-12-17 21:10:00,
2013-12-17 16:11:00,33.5,25.8,30.14,West,276,0.0,0.0,73,0.00,,,0.01,VWS V14.01,2013-12-17 21:11:00,
2013-12-17 16:16:00,33.4,26.0,30.14,West,262,0.0,0.0,74,0.00,,,0.01,VWS V14.01,2013-12-17 21:16:00,
2013-12-17 16:20:00,33.2,25.8,30.14,West,267,0.0,0.0,74,0.00,,,0.01,VWS V14.01,2013-12-17 21:20:00,
2013-12-17 16:21:00,33.2,25.8,30.14,WSW,252,0.0,0.0,74,0.00,,,0.01,VWS V14.01,2013-12-17 21:21:00,
2013-12-17 16:26:00,33.1,26.0,30.14,WSW,254,0.0,0.0,75,0.00,,,0.01,VWS V14.01,2013-12-17 21:26:00,
2013-12-17 16:30:00,32.9,25.9,30.15,West,263,0.0,0.0,75,0.00,,,0.01,VWS V14.01,2013-12-17 21:30:00,
2013-12-17 16:31:00,32.9,25.9,30.15,West,262,0.0,0.0,75,0.00,,,0.01,VWS V14.01,2013-12-17 21:31:00,
2013-12-17 16:36:00,32.9,25.5,30.15,West,261,0.0,0.0,74,0.00,,,0.01,VWS V14.01,2013-12-17 21:36:00,
2013-12-17 16:40:00,32.8,25.4,30.15,WSW,257,0.0,0.0,74,0.00,,,0.01,VWS V14.01,2013-12-17 21:40:00,
2013-12-17 16:41:00,32.8,25.4,30.15,West,281,0.0,0.0,74,0.00,,,0.01,VWS V14.01,2013-12-17 21:41:00,
2013-12-17 16:46:00,32.8,25.1,30.15,West,270,0.0,0.0,73,0.00,,,0.01,VWS V14.01,2013-12-17 21:46:00,
2013-12-17 16:50:00,32.8,25.1,30.15,WSW,257,0.0,0.0,73,0.00,,,0.01,VWS V14.01,2013-12-17 21:50:00,
2013-12-17 16:51:00,32.7,25.0,30.15,West,263,0.0,0.0,73,0.00,,,0.01,VWS V14.01,2013-12-17 21:51:00,
2013-12-17 16:56:00,32.7,25.0,30.15,West,267,0.0,0.0,73,0.00,,,0.01,VWS V14.01,2013-12-17 21:56:00,
2013-12-17 17:00:00,32.5,24.5,30.16,WSW,253,0.0,0.0,72,0.00,,,0.01,VWS V14.01,2013-12-17 22:00:00,
2013-12-17 17:01:00,32.5,24.5,30.16,WSW,245,0.0,0.0,72,0.00,,,0.01,VWS V14.01,2013-12-17 22:01:00,
2013-12-17 17:06:00,32.5,24.5,30.16,WSW,247,0.0,0.0,72,0.00,,,0.01,VWS V14.01,2013-12-17 22:06:00,
2013-12-17 17:10:00,32.5,24.5,30.16,SW,225,0.0,0.0,72,0.00,,,0.01,VWS V14.01,2013-12-17 22:10:00,
2013-12-17 17:11:00,32.5,24.5,30.16,West,267,0.0,0.0,72,0.00,,,0.01,VWS V14.01,2013-12-17 22:11:00,
2013-12-17 17:16:00,32.4,24.4,30.16,SW,235,0.0,0.0,72,0.00,,,0.01,VWS V14.01,2013-12-17 22:16:00,
2013-12-17 17:20:00,32.4,24.7,30.16,WSW,253,0.0,0.0,73,0.00,,,0.01,VWS V14.01,2013-12-17 22:20:00,
2013-12-17 17:21:00,32.4,24.7,30.16,WSW,247,0.0,0.0,73,0.00,,,0.01,VWS V14.01,2013-12-17 22:21:00,
2013-12-17 17:26:00,32.2,24.5,30.16,West,259,0.0,0.0,73,0.00,,,0.01,VWS V14.01,2013-12-17 22:26:00,
2013-12-17 17:30:00,32.2,24.2,30.16,West,261,0.0,0.0,72,0.00,,,0.01,VWS V14.01,2013-12-17 22:30:00,
2013-12-17 17:31:00,32.2,24.2,30.16,West,261,0.0,0.0,72,0.00,,,0.01,VWS V14.01,2013-12-17 22:31:00,
2013-12-17 17:36:00,32.1,24.1,30.16,WSW,248,0.0,0.0,72,0.00,,,0.01,VWS V14.01,2013-12-17 22:36:00,
2013-12-17 17:40:00,32.1,24.1,30.16,SW,226,0.0,0.0,72,0.00,,,0.01,VWS V14.01,2013-12-17 22:40:00,
2013-12-17 17:41:00,32.1,24.1,30.16,WSW,255,0.0,0.0,72,0.00,,,0.01,VWS V14.01,2013-12-17 22:41:00,
2013-12-17 17:46:00,32.1,23.8,30.17,SW,217,0.0,0.0,71,0.00,,,0.01,VWS V14.01,2013-12-17 22:46:00,
2013-12-17 17:50:00,31.9,23.9,30.17,SW,221,0.0,0.0,72,0.00,,,0.01,VWS V14.01,2013-12-17 22:50:00,
2013-12-17 17:51:00,31.9,23.9,30.17,SW,221,0.0,0.0,72,0.00,,,0.01,VWS V14.01,2013-12-17 22:51:00,
2013-12-17 17:56:00,31.8,24.1,30.17,SW,224,0.0,0.0,73,0.00,,,0.01,VWS V14.01,2013-12-17 22:56:00,
2013-12-17 18:00:00,31.8,24.5,30.16,SW,225,0.0,0.0,74,0.00,,,0.01,VWS V14.01,2013-12-17 23:00:00,
2013-12-17 18:01:00,31.6,24.3,30.16,SW,225,0.0,0.0,74,0.00,,,0.01,VWS V14.01,2013-12-17 23:01:00,
2013-12-17 18:06:00,31.5,24.5,30.16,WSW,240,0.0,0.0,75,0.00,,,0.01,VWS V14.01,2013-12-17 23:06:00,
2013-12-17 18:10:00,31.3,24.3,30.16,WSW,248,0.0,0.0,75,0.00,,,0.01,VWS V14.01,2013-12-17 23:10:00,
2013-12-17 18:11:00,31.2,24.5,30.16,WSW,246,0.0,0.0,76,0.00,,,0.01,VWS V14.01,2013-12-17 23:11:00,
2013-12-17 18:16:00,31.0,24.3,30.17,WSW,244,0.0,0.0,76,0.00,,,0.01,VWS V14.01,2013-12-17 23:16:00,
2013-12-17 18:20:00,31.0,24.6,30.17,WSW,239,0.0,0.0,77,0.00,,,0.01,VWS V14.01,2013-12-17 23:20:00,
2013-12-17 18:21:00,30.9,24.5,30.17,SW,234,0.0,0.0,77,0.00,,,0.01,VWS V14.01,2013-12-17 23:21:00,
2013-12-17 18:26:00,30.9,24.5,30.17,WSW,241,0.0,0.0,77,0.00,,,0.01,VWS V14.01,2013-12-17 23:26:00,
2013-12-17 18:30:00,30.7,24.4,30.19,SW,221,0.0,0.0,77,0.00,,,0.01,VWS V14.01,2013-12-17 23:30:00,
2013-12-17 18:31:00,30.7,24.4,30.19,WSW,238,0.0,0.0,77,0.00,,,0.01,VWS V14.01,2013-12-17 23:31:00,
2013-12-17 18:36:00,30.7,24.4,30.19,WSW,252,0.0,0.0,77,0.00,,,0.01,VWS V14.01,2013-12-17 23:36:00,
2013-12-17 18:40:00,30.7,24.4,30.19,West,260,0.0,0.0,77,0.00,,,0.01,VWS V14.01,2013-12-17 23:40:00,
2013-12-17 18:41:00,30.7,24.4,30.19,West,263,0.0,0.0,77,0.00,,,0.01,VWS V14.01,2013-12-17 23:41:00,
2013-12-17 18:46:00,30.7,24.4,30.19,West,261,0.0,0.0,77,0.00,,,0.01,VWS V14.01,2013-12-17 23:46:00,
2013-12-17 18:50:00,30.9,24.5,30.19,WSW,238,0.0,0.0,77,0.00,,,0.01,VWS V14.01,2013-12-17 23:50:00,
2013-12-17 18:51:00,30.9,24.2,30.19,WSW,256,0.0,0.0,76,0.00,,,0.01,VWS V14.01,2013-12-17 23:51:00,
2013-12-17 18:56:00,30.9,24.2,30.19,SW,232,0.0,0.0,76,0.00,,,0.01,VWS V14.01,2013-12-17 23:56:00,
2013-12-17 19:00:00,30.9,24.2,30.20,SW,227,0.0,0.0,76,0.00,,,0.01,VWS V14.01,2013-12-18 00:00:00,
2013-12-17 19:01:00,30.7,24.0,30.20,SW,227,0.0,0.0,76,0.00,,,0.01,VWS V14.01,2013-12-18 00:01:00,
2013-12-17 19:10:00,30.7,24.0,30.20,SW,236,0.0,0.0,76,0.00,,,0.01,VWS V14.01,2013-12-18 00:10:00,
2013-12-17 19:11:00,30.6,24.0,30.20,WSW,252,0.0,0.0,76,0.00,,,0.01,VWS V14.01,2013-12-18 00:11:00,
2013-12-17 19:16:00,30.4,23.8,30.21,SW,223,0.0,0.0,76,0.00,,,0.01,VWS V14.01,2013-12-18 00:16:00,
2013-12-17 19:20:00,30.4,23.8,30.21,WSW,238,0.0,0.0,76,0.00,,,0.01,VWS V14.01,2013-12-18 00:20:00,
2013-12-17 19:21:00,30.3,23.7,30.21,WSW,249,0.0,0.0,76,0.00,,,0.01,VWS V14.01,2013-12-18 00:21:00,
2013-12-17 19:26:00,30.3,24.0,30.21,SW,229,0.0,0.0,77,0.00,,,0.01,VWS V14.01,2013-12-18 00:26:00,
2013-12-17 19:30:00,30.3,24.0,30.22,SW,236,0.0,0.0,77,0.00,,,0.01,VWS V14.01,2013-12-18 00:30:00,
2013-12-17 19:31:00,30.3,24.0,30.22,WSW,238,0.0,0.0,77,0.00,,,0.01,VWS V14.01,2013-12-18 00:31:00,
2013-12-17 19:36:00,30.3,24.0,30.22,WSW,238,0.0,0.0,77,0.00,,,0.01,VWS V14.01,2013-12-18 00:36:00,
2013-12-17 19:40:00,30.3,23.7,30.22,WSW,250,0.0,0.0,76,0.00,,,0.01,VWS V14.01,2013-12-18 00:40:00,
2013-12-17 19:41:00,30.1,23.8,30.22,WSW,247,0.0,0.0,77,0.00,,,0.01,VWS V14.01,2013-12-18 00:41:00,
2013-12-17 19:46:00,30.0,23.7,30.22,WSW,257,0.0,0.0,77,0.00,,,0.01,VWS V14.01,2013-12-18 00:46:00,
2013-12-17 19:50:00,30.0,23.7,30.22,West,262,0.0,0.0,77,0.00,,,0.01,VWS V14.01,2013-12-18 00:50:00,
2013-12-17 19:51:00,29.8,23.5,30.22,West,269,0.0,0.0,77,0.00,,,0.01,VWS V14.01,2013-12-18 00:51:00,
2013-12-17 19:56:00,30.0,23.7,30.22,West,272,0.0,0.0,77,0.00,,,0.01,VWS V14.01,2013-12-18 00:56:00,
2013-12-17 20:00:00,30.0,23.7,30.23,West,259,0.0,0.0,77,0.00,,,0.01,VWS V14.01,2013-12-18 01:00:00,
2013-12-17 20:01:00,30.0,23.7,30.23,West,262,0.0,0.0,77,0.00,,,0.01,VWS V14.01,2013-12-18 01:01:00,
2013-12-17 20:06:00,30.9,24.2,30.20,SW,227,0.0,0.0,76,0.00,,,0.01,VWS V14.01,2013-12-18 01:06:00,
2013-12-17 20:10:00,30.1,23.8,30.23,West,271,0.0,0.0,77,0.00,,,0.01,VWS V14.01,2013-12-18 01:10:00,
2013-12-17 20:11:00,30.1,23.8,30.23,WSW,246,0.0,0.0,77,0.00,,,0.01,VWS V14.01,2013-12-18 01:11:00,
2013-12-17 20:12:00,30.7,24.0,30.20,WSW,246,0.0,0.0,76,0.00,,,0.01,VWS V14.01,2013-12-18 01:12:00,
2013-12-17 20:16:00,30.1,23.8,30.23,West,269,0.0,0.0,77,0.00,,,0.01,VWS V14.01,2013-12-18 01:16:00,
2013-12-17 20:20:00,30.1,23.8,30.23,West,263,0.0,0.0,77,0.00,,,0.01,VWS V14.01,2013-12-18 01:20:00,
2013-12-17 20:21:00,30.1,23.8,30.23,West,265,0.0,0.0,77,0.00,,,0.01,VWS V14.01,2013-12-18 01:21:00,
2013-12-17 20:26:00,30.3,24.0,30.23,WSW,254,0.0,0.0,77,0.00,,,0.01,VWS V14.01,2013-12-18 01:26:00,
2013-12-17 20:30:00,30.4,24.1,30.24,West,259,0.0,0.0,77,0.00,,,0.01,VWS V14.01,2013-12-18 01:30:00,
2013-12-17 20:32:00,30.4,23.8,30.24,WSW,256,0.0,0.0,76,0.00,,,0.01,VWS V14.01,2013-12-18 01:32:00,
2013-12-17 20:37:00,30.4,23.8,30.24,WSW,257,0.0,0.0,76,0.00,,,0.01,VWS V14.01,2013-12-18 01:37:00,
2013-12-17 20:40:00,30.6,24.3,30.24,West,272,0.0,0.0,77,0.00,,,0.01,VWS V14.01,2013-12-18 01:40:00,
2013-12-17 20:42:00,30.6,24.0,30.24,West,275,0.0,0.0,76,0.00,,,0.01,VWS V14.01,2013-12-18 01:42:00,
2013-12-17 20:47:00,30.6,24.3,30.24,WSW,250,0.0,0.0,77,0.00,,,0.01,VWS V14.01,2013-12-18 01:47:00,
2013-12-17 20:50:00,30.7,24.0,30.24,West,271,0.0,0.0,76,0.00,,,0.01,VWS V14.01,2013-12-18 01:50:00,
2013-12-17 20:52:00,30.7,24.0,30.24,West,275,0.0,0.0,76,0.00,,,0.01,VWS V14.01,2013-12-18 01:52:00,
2013-12-17 20:57:00,30.9,24.2,30.24,WSW,245,0.0,0.0,76,0.00,,,0.01,VWS V14.01,2013-12-18 01:57:00,
2013-12-17 21:00:00,30.9,24.2,30.24,SW,230,0.0,0.0,76,0.00,,,0.01,VWS V14.01,2013-12-18 02:00:00,
2013-12-17 21:02:00,30.9,24.2,30.24,WNW,290,0.0,0.0,76,0.00,,,0.01,VWS V14.01,2013-12-18 02:02:00,
2013-12-17 21:06:00,30.0,23.7,30.23,West,259,0.0,0.0,77,0.00,,,0.01,VWS V14.01,2013-12-18 02:06:00,
2013-12-17 21:07:00,30.9,24.2,30.24,WNW,284,0.0,0.0,76,0.00,,,0.01,VWS V14.01,2013-12-18 02:07:00,
2013-12-17 21:10:00,30.9,24.2,30.24,West,275,0.0,0.0,76,0.00,,,0.01,VWS V14.01,2013-12-18 02:10:00,
2013-12-17 21:12:00,30.9,24.2,30.24,WNW,285,0.0,0.0,76,0.00,,,0.01,VWS V14.01,2013-12-18 02:12:00,
2013-12-17 21:17:00,31.0,24.6,30.25,West,273,0.0,0.0,77,0.00,,,0.01,VWS V14.01,2013-12-18 02:17:00,
2013-12-17 21:20:00,31.0,24.6,30.25,West,267,0.0,0.0,77,0.00,,,0.01,VWS V14.01,2013-12-18 02:20:00,
2013-12-17 21:22:00,31.0,24.6,30.25,West,269,0.0,0.0,77,0.00,,,0.01,VWS V14.01,2013-12-18 02:22:00,
2013-12-17 21:27:00,31.0,24.3,30.25,West,269,0.0,0.0,76,0.00,,,0.01,VWS V14.01,2013-12-18 02:27:00,
2013-12-17 21:30:00,31.0,24.3,30.26,SW,223,0.0,0.0,76,0.00,,,0.01,VWS V14.01,2013-12-18 02:30:00,
2013-12-17 21:32:00,31.0,24.3,30.26,West,260,0.0,0.0,76,0.00,,,0.01,VWS V14.01,2013-12-18 02:32:00,
2013-12-17 21:37:00,31.0,24.0,30.26,WNW,290,0.0,0.0,75,0.00,,,0.01,VWS V14.01,2013-12-18 02:37:00,
2013-12-17 21:40:00,31.0,24.0,30.26,WSW,254,0.0,0.0,75,0.00,,,0.01,VWS V14.01,2013-12-18 02:40:00,
2013-12-17 21:42:00,31.0,23.7,30.26,West,277,0.0,0.0,74,0.00,,,0.01,VWS V14.01,2013-12-18 02:42:00,
2013-12-17 21:47:00,31.0,23.7,30.26,WSW,257,0.0,0.0,74,0.00,,,0.01,VWS V14.01,2013-12-18 02:47:00,
2013-12-17 21:50:00,31.0,23.7,30.26,WNW,288,0.0,0.0,74,0.00,,,0.01,VWS V14.01,2013-12-18 02:50:00,
2013-12-17 21:52:00,30.9,23.6,30.26,West,259,0.0,0.0,74,0.00,,,0.01,VWS V14.01,2013-12-18 02:52:00,
2013-12-17 21:57:00,30.9,23.9,30.26,West,277,0.0,0.0,75,0.00,,,0.01,VWS V14.01,2013-12-18 02:57:00,
2013-12-17 22:00:00,30.9,23.9,30.26,WSW,256,0.0,0.0,75,0.00,,,0.01,VWS V14.01,2013-12-18 03:00:00,
2013-12-17 22:02:00,30.9,23.9,30.26,West,266,0.0,0.0,75,0.00,,,0.01,VWS V14.01,2013-12-18 03:02:00,
2013-12-17 22:07:00,30.7,23.7,30.26,West,267,0.0,0.0,75,0.00,,,0.01,VWS V14.01,2013-12-18 03:07:00,
2013-12-17 22:10:00,30.6,24.0,30.26,WSW,250,0.0,0.0,76,0.00,,,0.01,VWS V14.01,2013-12-18 03:10:00,
2013-12-17 22:12:00,30.4,23.8,30.26,West,272,0.0,0.0,76,0.00,,,0.01,VWS V14.01,2013-12-18 03:12:00,
2013-12-17 22:17:00,30.3,24.0,30.27,West,264,0.0,0.0,77,0.00,,,0.01,VWS V14.01,2013-12-18 03:17:00,
2013-12-17 22:20:00,30.3,24.0,30.27,West,267,0.0,0.0,77,0.00,,,0.01,VWS V14.01,2013-12-18 03:20:00,
2013-12-17 22:22:00,30.1,23.8,30.27,SW,221,0.0,0.0,77,0.00,,,0.01,VWS V14.01,2013-12-18 03:22:00,
2013-12-17 22:27:00,30.0,23.7,30.27,WSW,244,0.0,0.0,77,0.00,,,0.01,VWS V14.01,2013-12-18 03:27:00,
2013-12-17 22:30:00,30.0,24.0,30.27,WSW,246,0.0,0.0,78,0.00,,,0.01,VWS V14.01,2013-12-18 03:30:00,
2013-12-17 22:32:00,29.8,23.8,30.27,WSW,252,0.0,0.0,78,0.00,,,0.01,VWS V14.01,2013-12-18 03:32:00,
2013-12-17 22:37:00,29.8,23.8,30.27,WSW,256,0.0,0.0,78,0.00,,,0.01,VWS V14.01,2013-12-18 03:37:00,
2013-12-17 22:40:00,29.8,23.8,30.27,WSW,252,0.0,0.0,78,0.00,,,0.01,VWS V14.01,2013-12-18 03:40:00,
2013-12-17 22:42:00,29.7,23.7,30.27,WSW,248,0.0,0.0,78,0.00,,,0.01,VWS V14.01,2013-12-18 03:42:00,
2013-12-17 22:47:00,29.5,23.8,30.27,WSW,248,0.0,0.0,79,0.00,,,0.01,VWS V14.01,2013-12-18 03:47:00,
2013-12-17 22:50:00,29.5,23.8,30.27,WSW,248,0.0,0.0,79,0.00,,,0.01,VWS V14.01,2013-12-18 03:50:00,
2013-12-17 22:52:00,29.4,23.7,30.27,WSW,248,0.0,0.0,79,0.00,,,0.01,VWS V14.01,2013-12-18 03:52:00,
2013-12-17 22:57:00,29.3,23.9,30.27,WSW,248,0.0,0.0,80,0.00,,,0.01,VWS V14.01,2013-12-18 03:57:00,
2013-12-17 23:00:00,29.1,23.7,30.26,WSW,248,0.0,0.0,80,0.00,,,0.01,VWS V14.01,2013-12-18 04:00:00,
2013-12-17 23:02:00,29.1,23.7,30.26,WSW,248,0.0,0.0,80,0.00,,,0.00,VWS V14.01,2013-12-18 04:02:00,
2013-12-17 23:07:00,28.8,23.4,30.26,WSW,248,0.0,0.0,80,0.00,,,0.00,VWS V14.01,2013-12-18 04:07:00,
2013-12-17 23:10:00,28.8,23.4,30.26,WSW,248,0.0,0.0,80,0.00,,,0.00,VWS V14.01,2013-12-18 04:10:00,
2013-12-17 23:12:00,28.7,23.6,30.26,WSW,248,0.0,0.0,81,0.00,,,0.00,VWS V14.01,2013-12-18 04:12:00,
2013-12-17 23:17:00,28.5,23.4,30.26,WSW,248,0.0,0.0,81,0.00,,,0.00,VWS V14.01,2013-12-18 04:17:00,
2013-12-17 23:20:00,28.5,23.4,30.26,WSW,248,0.0,0.0,81,0.00,,,0.00,VWS V14.01,2013-12-18 04:20:00,
2013-12-17 23:22:00,28.4,23.3,30.26,WSW,248,0.0,0.0,81,0.00,,,0.00,VWS V14.01,2013-12-18 04:22:00,
2013-12-17 23:27:00,28.2,23.4,30.26,WSW,248,0.0,0.0,82,0.00,,,0.00,VWS V14.01,2013-12-18 04:27:00,
2013-12-17 23:30:00,28.2,23.4,30.26,WSW,248,0.0,0.0,82,0.00,,,0.00,VWS V14.01,2013-12-18 04:30:00,
2013-12-17 23:32:00,28.2,23.4,30.26,WSW,248,0.0,0.0,82,0.00,,,0.00,VWS V14.01,2013-12-18 04:32:00,
2013-12-17 23:37:00,28.1,23.3,30.26,WSW,248,0.0,0.0,82,0.00,,,0.00,VWS V14.01,2013-12-18 04:37:00,
2013-12-17 23:40:00,28.1,23.3,30.26,WSW,248,0.0,0.0,82,0.00,,,0.00,VWS V14.01,2013-12-18 04:40:00,
2013-12-17 23:42:00,27.9,23.4,30.26,WSW,248,0.0,0.0,83,0.00,,,0.00,VWS V14.01,2013-12-18 04:42:00,
2013-12-17 23:47:00,27.8,23.3,30.26,WSW,248,0.0,0.0,83,0.00,,,0.00,VWS V14.01,2013-12-18 04:47:00,
2013-12-17 23:50:00,27.8,23.3,30.26,WSW,248,0.0,0.0,83,0.00,,,0.00,VWS V14.01,2013-12-18 04:50:00,
2013-12-17 23:52:00,27.8,23.3,30.26,WSW,248,0.0,0.0,83,0.00,,,0.00,VWS V14.01,2013-12-18 04:52:00,
2013-12-17 23:57:00,27.8,23.3,30.26,WSW,246,0.0,0.0,83,0.00,,,0.00,VWS V14.01,2013-12-18 04:57:00,